User: anonymous   Login
Location: Unspecified
(0.0000°N, 0.0000°E)
Time: 22:27:04
(UTC+00:00)
Language:

STARS - Orbit

View from above orbital plane
View from above orbital plane
View from above satellite
View from above satellite

Ground track
Ground track

The orbit data is extracted from the following two-line orbital elements,

1 33498U 09002G   24147.34592435  .00004390  00000-0  51666-3 0  9994
2 33498  98.1211  61.1438 0011508 114.5305 245.7110 14.85320406826850
Epoch (UTC): 26 May 2024 08:18:07
Eccentricity: 0.0011508
inclination: 98.1211°
perigee height: 604 km
apogee height: 620 km
right ascension of ascending node: 61.1438°
argument of perigee: 114.5305°
revolutions per day: 14.85320406
mean anomaly at epoch: 245.7110°
orbit number at epoch: 82685

The dashed part of the orbit path shows where the satellite is in the earth's shadow,  

DLR